Showing default

HORYU 4, 41340

Orbit data source: Space-Track

HORYU 4, 41340 is a payload satellite owned by Kyutech (JP) in LEO that was launched on Wed, 17 Feb 2016 UTC via an H-IIA 202 launch vehicle from the Tanegashima Space Center (TNSTA). Payload-class satellites include a variety of spacecraft equipped with specific instruments for various scientific and technological missions. These include communications satellites like Starlink; space stations such as the ISS; scientific satellites like the Hubble; Earth observation satellites from companies like Planet Labs, Umbra, and HawkEye 360; GPS; miniature CubeSats for education and research; and military/defense satellites.

Loading next visibility...
Identifier
41340, 2016-012D
Orbit
LEO
Last TLE update
16 hours ago
Origin
Manufacturer
Kyutech
Mission
Operational Amateur Technology
Bus & Motor
HORYU, Unknown motor
Mass
10 kg wet, 10 kg dry
Launch date (UTC)
2016-02-17 (9 years ago)
Launch vehicle
H-IIA 202
Launch site
Tanegashima Space Center (TNSTA)
Object type
Payload
Rocket body
Debris
Shape & HBR
Box, 0.45 m
Radar Cross Section
0.290 m², Medium (>0.1 m² and < 1m²)

Expand to show TLE details & history

TLE from 16 hours ago
0 HORYU 4
1 41340U 16012D   25185.53820542  .00019427  00000-0  50309-3 0  9995
2 41340  30.9979 323.9788 0006395 326.7575  33.2669 15.37781170516639
Epoch: 2025-07-04T12:55Z
TLE epoch observation values (Epoch: 2025-07-04T12:55:00.948Z)
Latitude
0.00001°
Longitude
-152.5643°
Altitude
447.512 km
Speed
7.648 km/s
True Right ascension
21h 35m 54s
True Declination
0° 00' 00"
Sunlit
Object was in full shadow at epoch
Visualization orbit readout
Latitude
17.17362°
Longitude
-7.87652°
Altitude
454.776 km
Speed
7.641 km/s
Apparent Right ascension
06h 17m 30s
Apparent Declination
-10° 40' 40"
Sunlit
Object is in daylight
Visualization observer readout
Local Sidereal Time
17:00:40
Azimuth
324.505° NNW
Elevation
-56.164°
Doppler factor
1
Orbital elements
Apogee altitude
460.931 km
Perigee altitude
452.19 km
Semi-major axis
6,834.697 km
Eccentricity
0.00064
Inclination
30.9979°
RAAN
323.9788°
Arg. of periapsis
326.7575°
True anomaly
Unknown
Mean anomaly
33.2669°
Eccentric anomaly
Unknown
Mean motion
3.84118 °/min
Orbital period
93.72 mins
BSTAR
0.00050309
Loading maneuver chart data...
Loading SW <> Apogee altitude chart data...
Loading historical data...
Loading historical data...
Loading historical data...
Loading historical data...
Loading historical data...
Loading historical data...
Loading historical data...

HORYU 4 Visibility forecast

Observer location: undefined°, undefined°

Span
Click to sort rows by Start time (UTC) header in descending order
Start Az.
Max El. time (UTC)
Max El. Az.
Max El.
End time (UTC)
End Az.
4 mins2025-07-05 14:08:19.834Z212.958° SW2025-07-05 14:10:19.834Z178.673° S16.19°2025-07-05 14:12:19.834Z139.315° SSE
|